ROMMA est une association bénévole à but non lucratif. Votre soutien est indispensable : ADHERER à ROMMA ou FAIRE un DON

La Beaume - (05, Hautes Alpes)

Buëch (820 m)   Longitude: 5° 40' 9'' E   Latitude: 44° 32' 3'' N Station partenaire n°75
 

Détail journalier du     <<     >>

Température Precipitation Humidité Pression Vent Dir Rafale Dir. rafale Ensol.
Heure (°C) (mm) (%) (hPa) (km/h) (km/h) (min)
01:00 10.90.29310162SO5SO0
02:00 10.809410162SO6SO0
03:00 10.70.494101505SSO0
04:00 10.809510152SSO6O0
05:00 10.60.49510152NNE8SO0
06:00 10.409510152E8SO0
07:00 10.30.29510151S5S0
08:00 9.209510152S6O0
09:00 11.909610151S5O30
10:00 13.209210164ENE8ESE60
11:00 14.708410163ESE8SE60
12:00 17.307610152ESE6ENE60
13:00 19.905910143ESE13NO60
14:00 20.505710146NO13NO60
15:00 19.7058101410ONO19ONO60
16:00 18.806310146N16N60
17:00 17.106910146NNO11NNO0
18:00 15.807110157NO18NO0
19:00 14.507410167NO15N0
20:00 13.308110167ONO16NO0
21:00 14.107210177ONO21NO0
22:00 12.407710177N16N0
23:00 12.207510174ONO11O0
minuit 11.108110173N11N0

Graphique du 29-10-2019

 

Serveur OMMA